timestamp,wind_dir_avg,wind_spd_avg,wind_spd_max_dir,wind_spd_gust,battery_voltage,lat,long
2022-10-20 00:04:00+00:00,101.0,2.86,91.0,4.41,12.57,47.59359,-54.27349
2022-10-20 00:14:01+00:00,78.0,1.77,74.0,2.19,12.49,47.59359,-54.27349
2022-10-20 00:24:01+00:00,116.0,1.85,137.0,3.4,12.49,47.59359,-54.27349
2022-10-20 00:34:01+00:00,139.0,2.61,147.0,3.13,12.49,47.59359,-54.27349
2022-10-20 00:44:01+00:00,122.0,3.88,119.0,4.54,12.49,47.59359,-54.27349
2022-10-20 00:54:01+00:00,134.0,3.74,132.0,4.36,12.49,47.59359,-54.27349
2022-10-20 01:04:01+00:00,133.0,4.35,127.0,5.49,12.49,47.59359,-54.27349
2022-10-20 01:14:01+00:00,126.0,5.17,125.0,5.85,12.49,47.59359,-54.27349
2022-10-20 01:24:01+00:00,129.0,5.19,137.0,6.47,12.49,47.59359,-54.27349
2022-10-20 01:34:01+00:00,126.0,5.79,128.0,6.9,12.49,47.59359,-54.27349
2022-10-20 01:44:01+00:00,133.0,5.0,138.0,6.43,12.49,47.59359,-54.27349
2022-10-20 01:54:01+00:00,136.0,6.94,138.0,8.35,12.49,47.59359,-54.27349
2022-10-20 02:04:01+00:00,133.0,6.19,139.0,7.4,12.49,47.59359,-54.27349
2022-10-20 02:14:00+00:00,136.0,6.69,134.0,7.91,12.41,47.59359,-54.27349
2022-10-20 02:24:00+00:00,134.0,5.49,135.0,7.08,12.41,47.59359,-54.27349
2022-10-20 02:34:00+00:00,147.0,5.52,148.0,6.51,12.41,47.59359,-54.27349
2022-10-20 02:44:00+00:00,146.0,5.13,148.0,6.09,12.41,47.59359,-54.27349
2022-10-20 02:54:00+00:00,152.0,6.47,151.0,7.0,12.41,47.59359,-54.27349
2022-10-20 03:04:00+00:00,149.0,5.59,148.0,6.62,12.41,47.59359,-54.27349
2022-10-20 03:14:01+00:00,151.0,4.95,157.0,6.02,12.41,47.59359,-54.27349
2022-10-20 03:24:01+00:00,147.0,5.59,149.0,6.47,12.41,47.59359,-54.27349
2022-10-20 03:34:01+00:00,139.0,4.29,151.0,5.57,12.41,47.59359,-54.27349
2022-10-20 03:44:01+00:00,148.0,7.01,145.0,7.86,12.41,47.59359,-54.27349
2022-10-20 03:54:01+00:00,151.0,6.7,157.0,7.83,12.41,47.59359,-54.27349
2022-10-20 04:04:01+00:00,147.0,7.58,153.0,8.32,12.41,47.59359,-54.27349
2022-10-20 04:14:01+00:00,148.0,7.81,150.0,8.8,12.41,47.59359,-54.27349
2022-10-20 04:24:01+00:00,143.0,7.28,145.0,8.21,12.41,47.59359,-54.27349
2022-10-20 04:34:01+00:00,139.0,6.78,144.0,7.32,12.41,47.59359,-54.27349
2022-10-20 04:44:01+00:00,129.0,6.45,126.0,7.7,12.41,47.59359,-54.27349
2022-10-20 04:54:01+00:00,127.0,5.44,120.0,6.38,12.41,47.59359,-54.27349
2022-10-20 05:04:01+00:00,131.0,5.41,138.0,6.78,12.41,47.59359,-54.27349
2022-10-20 05:14:01+00:00,133.0,6.26,140.0,7.48,12.41,47.59359,-54.27349
2022-10-20 05:24:01+00:00,131.0,5.69,137.0,6.96,12.41,47.59359,-54.27349
2022-10-20 05:34:01+00:00,137.0,6.12,136.0,7.47,12.41,47.59359,-54.27349
2022-10-20 05:44:01+00:00,132.0,4.29,133.0,5.19,12.41,47.59359,-54.27349
2022-10-20 05:54:01+00:00,121.0,4.79,116.0,5.67,12.41,47.59359,-54.27349
2022-10-20 06:04:01+00:00,126.0,5.24,127.0,5.99,12.41,47.59359,-54.27349
2022-10-20 06:14:01+00:00,129.0,5.47,124.0,6.85,12.41,47.59359,-54.27349
2022-10-20 06:24:01+00:00,133.0,5.0,140.0,6.5,12.41,47.59359,-54.27349
2022-10-20 06:34:01+00:00,136.0,4.26,138.0,5.14,12.41,47.59359,-54.27349
2022-10-20 06:44:01+00:00,128.0,4.2,125.0,5.11,12.41,47.59359,-54.27349
2022-10-20 06:54:01+00:00,131.0,4.56,132.0,5.69,12.41,47.59359,-54.27349
2022-10-20 07:04:01+00:00,141.0,5.73,145.0,6.62,12.41,47.59359,-54.27349
2022-10-20 07:14:00+00:00,141.0,5.91,139.0,7.1,12.33,47.59359,-54.27349
2022-10-20 07:24:00+00:00,152.0,5.93,153.0,6.74,12.33,47.59359,-54.27349
2022-10-20 07:34:00+00:00,150.0,6.19,148.0,6.93,12.33,47.59359,-54.27349
2022-10-20 07:44:00+00:00,150.0,5.76,152.0,6.55,12.33,47.59359,-54.27349
2022-10-20 07:54:00+00:00,150.0,4.94,154.0,5.75,12.33,47.59359,-54.27349
2022-10-20 08:04:00+00:00,144.0,4.39,142.0,5.05,12.33,47.59359,-54.27349
2022-10-20 08:14:01+00:00,146.0,4.85,149.0,6.05,12.41,47.59359,-54.27349
2022-10-20 08:24:01+00:00,147.0,3.98,145.0,4.35,12.41,47.59359,-54.27349
2022-10-20 08:34:01+00:00,149.0,3.66,149.0,4.53,12.41,47.59359,-54.27349
2022-10-20 08:44:01+00:00,138.0,4.77,132.0,5.77,12.41,47.59359,-54.27349
2022-10-20 08:54:01+00:00,139.0,4.16,136.0,4.77,12.41,47.59359,-54.27349
2022-10-20 09:04:01+00:00,147.0,3.76,147.0,4.39,12.41,47.59359,-54.27349
2022-10-20 09:14:00+00:00,144.0,3.92,142.0,4.58,12.33,47.59359,-54.27349
2022-10-20 09:24:00+00:00,143.0,5.28,146.0,6.24,12.33,47.59359,-54.27349
2022-10-20 09:34:00+00:00,143.0,6.37,146.0,6.99,12.33,47.59359,-54.27349
2022-10-20 09:44:00+00:00,150.0,5.17,148.0,5.94,12.33,47.59359,-54.27349
2022-10-20 09:54:00+00:00,153.0,5.7,151.0,6.59,12.33,47.59359,-54.27349
2022-10-20 10:04:00+00:00,152.0,4.49,162.0,5.87,12.33,47.59359,-54.27349
2022-10-20 10:14:00+00:00,157.0,5.76,150.0,6.98,12.33,47.59359,-54.27349
2022-10-20 10:24:00+00:00,153.0,6.29,154.0,6.93,12.33,47.59359,-54.27349
2022-10-20 10:34:00+00:00,163.0,5.3,159.0,6.46,12.33,47.59359,-54.27349
2022-10-20 10:44:00+00:00,162.0,5.55,167.0,6.47,12.33,47.59359,-54.27349
2022-10-20 10:54:00+00:00,164.0,5.59,162.0,7.02,12.33,47.59359,-54.27349
2022-10-20 11:04:00+00:00,159.0,6.44,158.0,7.07,12.33,47.59359,-54.27349
2022-10-20 11:14:01+00:00,155.0,6.21,155.0,7.16,12.33,47.59359,-54.27349
2022-10-20 11:24:01+00:00,157.0,6.28,149.0,7.08,12.33,47.59359,-54.27349
2022-10-20 11:34:01+00:00,163.0,6.67,170.0,8.52,12.33,47.59359,-54.27349
2022-10-20 11:44:01+00:00,158.0,6.56,156.0,8.11,12.33,47.59359,-54.27349
2022-10-20 11:54:01+00:00,166.0,7.12,169.0,8.22,12.33,47.59359,-54.27349
2022-10-20 12:04:01+00:00,161.0,6.8,160.0,8.95,12.33,47.59359,-54.27349
2022-10-20 12:14:01+00:00,164.0,9.56,158.0,11.41,12.49,47.59359,-54.27349
2022-10-20 12:24:01+00:00,163.0,9.66,159.0,11.19,12.49,47.59359,-54.27349
2022-10-20 12:34:01+00:00,164.0,9.21,171.0,10.13,12.49,47.59359,-54.27349
2022-10-20 12:44:01+00:00,169.0,9.4,172.0,10.87,12.49,47.59359,-54.27349
2022-10-20 12:54:01+00:00,173.0,10.02,175.0,12.24,12.49,47.59359,-54.27349
2022-10-20 13:04:01+00:00,174.0,10.27,174.0,11.99,12.49,47.59359,-54.27349
2022-10-20 13:14:00+00:00,168.0,9.89,178.0,11.65,12.81,47.59359,-54.27349
2022-10-20 13:24:00+00:00,171.0,10.91,168.0,12.34,12.81,47.59359,-54.27349
2022-10-20 13:34:00+00:00,163.0,11.8,166.0,13.82,12.81,47.59359,-54.27349
2022-10-20 13:44:00+00:00,167.0,11.22,169.0,14.18,12.81,47.59359,-54.27349
2022-10-20 13:54:00+00:00,169.0,10.93,166.0,12.9,12.81,47.59359,-54.27349
2022-10-20 14:04:00+00:00,162.0,11.32,170.0,13.17,12.81,47.59359,-54.27349
2022-10-20 14:14:00+00:00,167.0,11.8,173.0,14.38,13.05,47.59359,-54.27349
2022-10-20 14:24:00+00:00,166.0,11.49,167.0,12.56,13.05,47.59359,-54.27349
2022-10-20 14:34:00+00:00,165.0,11.12,158.0,13.13,13.05,47.59359,-54.27349
2022-10-20 14:44:00+00:00,164.0,11.08,161.0,12.31,13.05,47.59359,-54.27349
2022-10-20 14:54:00+00:00,165.0,10.81,163.0,12.24,13.05,47.59359,-54.27349
2022-10-20 15:04:00+00:00,168.0,10.76,165.0,12.62,13.05,47.59359,-54.27349
2022-10-20 15:14:01+00:00,170.0,11.25,173.0,12.8,13.05,47.59359,-54.27349
2022-10-20 15:24:01+00:00,170.0,9.71,175.0,13.47,13.05,47.59359,-54.27349
2022-10-20 15:34:01+00:00,171.0,10.55,175.0,12.53,13.05,47.59359,-54.27349
2022-10-20 15:44:01+00:00,168.0,11.39,174.0,13.33,13.05,47.59359,-54.27349
2022-10-20 15:54:01+00:00,172.0,10.36,175.0,11.83,13.05,47.59359,-54.27349
2022-10-20 16:04:01+00:00,173.0,9.41,179.0,10.4,13.05,47.59359,-54.27349
2022-10-20 16:14:01+00:00,169.0,11.45,163.0,15.89,13.05,47.59359,-54.27349
2022-10-20 16:24:01+00:00,173.0,12.13,172.0,13.85,13.05,47.59359,-54.27349
2022-10-20 16:34:01+00:00,175.0,10.5,170.0,12.72,13.05,47.59359,-54.27349
2022-10-20 16:44:01+00:00,175.0,12.34,177.0,13.6,13.05,47.59359,-54.27349
2022-10-20 16:54:01+00:00,175.0,12.02,176.0,14.4,13.05,47.59359,-54.27349
2022-10-20 17:04:01+00:00,176.0,13.62,174.0,15.0,13.05,47.59359,-54.27349
2022-10-20 17:14:00+00:00,177.0,12.49,174.0,14.61,12.97,47.59359,-54.27349
2022-10-20 17:24:00+00:00,181.0,12.43,183.0,14.52,12.97,47.59359,-54.27349
2022-10-20 17:34:00+00:00,182.0,12.88,181.0,14.3,12.97,47.59359,-54.27349
2022-10-20 17:44:00+00:00,185.0,12.97,185.0,15.27,12.97,47.59359,-54.27349
2022-10-20 17:54:00+00:00,185.0,13.51,189.0,16.06,12.97,47.59359,-54.27349
2022-10-20 18:04:00+00:00,182.0,12.99,182.0,14.31,12.97,47.59359,-54.27349
2022-10-20 18:14:01+00:00,181.0,13.02,178.0,14.67,13.29,47.59359,-54.27349
2022-10-20 18:24:01+00:00,179.0,13.51,172.0,15.3,13.29,47.59359,-54.27349
2022-10-20 18:34:01+00:00,184.0,13.04,182.0,15.11,13.29,47.59359,-54.27349
2022-10-20 18:44:01+00:00,183.0,14.01,184.0,15.99,13.29,47.59359,-54.27349
2022-10-20 18:54:01+00:00,183.0,13.82,186.0,15.21,13.29,47.59359,-54.27349
2022-10-20 19:04:01+00:00,184.0,12.94,184.0,14.66,13.29,47.59359,-54.27349
2022-10-20 19:14:01+00:00,182.0,13.51,183.0,15.0,12.73,47.59359,-54.27349
2022-10-20 19:24:01+00:00,183.0,12.88,185.0,14.73,12.73,47.59359,-54.27349
2022-10-20 19:34:01+00:00,183.0,12.38,183.0,14.4,12.73,47.59359,-54.27349
2022-10-20 19:44:01+00:00,185.0,11.01,191.0,12.73,12.73,47.59359,-54.27349
2022-10-20 19:54:01+00:00,183.0,11.25,181.0,14.01,12.73,47.59359,-54.27349
2022-10-20 20:04:01+00:00,181.0,10.75,180.0,12.43,12.73,47.59359,-54.27349
2022-10-20 20:14:00+00:00,178.0,10.9,179.0,12.16,12.57,47.59359,-54.27349
2022-10-20 20:24:00+00:00,181.0,9.77,182.0,10.63,12.57,47.59359,-54.27349
2022-10-20 20:34:00+00:00,183.0,11.39,189.0,13.74,12.57,47.59359,-54.27349
2022-10-20 20:44:00+00:00,185.0,9.85,184.0,13.87,12.57,47.59359,-54.27349
2022-10-20 20:54:00+00:00,186.0,9.12,186.0,10.48,12.57,47.59359,-54.27349
2022-10-20 21:04:00+00:00,191.0,9.52,193.0,11.78,12.57,47.59359,-54.27349
2022-10-20 21:14:00+00:00,194.0,10.75,191.0,12.76,12.49,47.59359,-54.27349
2022-10-20 21:24:00+00:00,198.0,9.33,206.0,10.36,12.49,47.59359,-54.27349
2022-10-20 21:34:00+00:00,186.0,13.55,186.0,15.3,12.49,47.59359,-54.27349
2022-10-20 21:44:00+00:00,195.0,8.16,199.0,9.35,12.49,47.59359,-54.27349
2022-10-20 21:54:00+00:00,188.0,7.83,186.0,9.26,12.49,47.59359,-54.27349
2022-10-20 22:04:00+00:00,197.0,9.36,202.0,10.67,12.49,47.59359,-54.27349
2022-10-20 22:14:00+00:00,199.0,10.02,205.0,11.43,12.41,47.59359,-54.27349
2022-10-20 22:24:00+00:00,190.0,11.76,190.0,13.94,12.41,47.59359,-54.27349
2022-10-20 22:34:00+00:00,211.0,10.14,210.0,11.34,12.41,47.59359,-54.27349
2022-10-20 22:44:00+00:00,214.0,11.16,215.0,12.83,12.41,47.59359,-54.27349
2022-10-20 22:54:00+00:00,209.0,10.17,210.0,11.4,12.41,47.59359,-54.27349
2022-10-20 23:04:00+00:00,211.0,10.12,210.0,11.59,12.41,47.59359,-54.27349
2022-10-20 23:14:00+00:00,208.0,9.74,210.0,11.97,12.41,47.59359,-54.27349
2022-10-20 23:24:00+00:00,214.0,11.17,208.0,13.27,12.41,47.59359,-54.27349
2022-10-20 23:34:00+00:00,217.0,11.99,218.0,13.3,12.41,47.59359,-54.27349
2022-10-20 23:44:00+00:00,216.0,11.62,217.0,12.6,12.41,47.59359,-54.27349
2022-10-20 23:54:00+00:00,216.0,10.56,214.0,12.07,12.41,47.59359,-54.27349
